Rochelle, IL

6:12 PM CST on February 27, 2017 (GMT -0600)
Rochelle

Weather History for KRPJ - April, 2014

Change the Weather History Date:

Tuesday, April 1, 2014

  Actual Average (KRFD) Record (KRFD)
Temperature  
Mean Temperature 40 °F -  
Max Temperature 52 °F 50 °F 84 °F (2010)
Min Temperature 29 °F 32 °F 16 °F (1924)
Degree Days  
Heating Degree Days 24    
Moisture  
Dew Point 27 °F    
Average Humidity 65    
Maximum Humidity 80    
Minimum Humidity 48    
Precipitation  
Precipitation 0.00 in - - ()
Sea Level Pressure  
Sea Level Pressure 29.90 in    
Wind  
Wind Speed 20 mph (WSW)    
Max Wind Speed 31 mph    
Max Gust Speed 38 mph    
Visibility 10 miles    
Events      
Averages and records for this station are not official NWS values.
T = Trace of Precipitation, MM = Missing Value Source: NWS Daily Summary

Daily Weather History Graph

Daily Weather History Graph

Search for Another Location

Airport or City:

Trip Planner

Search our weather history database for the weather conditions in past years. The results will help you decide how hot, cold, wet, or windy it might be!

Date:

Astronomy

Apr. 01, 2014 Rise Set
Actual Time 6:39 AM CDT 7:21 PM CDT
Civil Twilight 6:10 AM CDT 7:50 PM CDT
Nautical Twilight 5:37 AM CDT 8:23 PM CDT
Astronomical Twilight 5:03 AM CDT 8:58 PM CDT
Moon 7:39 AM CDT (4/1) 9:46 PM CDT (4/1)
Length of Visible Light 13h 39m
Length of Day
12h 42m
Waxing Crescent, 5% of the Moon is Illuminated
Apr 1
Waxing Crescent
Apr 7
First Quarter
Apr 15
Full
Apr 22
Last Quarter
Apr 29
New

Hourly Weather History & Observations

Time (CDT) Temp. Windchill Dew Point Humidity Pressure Visibility Wind Dir Wind Speed Gust Speed Precip Events Conditions
12:15 AM 52.3 °F - 41.9 °F 68% 29.70 in 10.0 mi SSW 17.3 mph 28.8 mph N/A   Scattered Clouds
12:35 AM 52.9 °F - 41.9 °F 66% 29.69 in 10.0 mi SSW 16.1 mph 20.7 mph N/A   Mostly Cloudy
12:55 AM 52.7 °F - 43.3 °F 70% 29.70 in 10.0 mi WSW 18.4 mph - N/A   Overcast
1:15 AM 49.6 °F - 37.6 °F 63% 29.70 in 10.0 mi WSW 23.0 mph - N/A   Overcast
1:35 AM 47.8 °F - 35.2 °F 62% 29.71 in 10.0 mi WSW 18.4 mph 23.0 mph N/A   Mostly Cloudy
1:55 AM 44.2 °F 37.3 °F 34.2 °F 68% 29.71 in 10.0 mi SW 15.0 mph - N/A   Scattered Clouds
2:15 AM 42.6 °F 35.2 °F 33.8 °F 71% 29.72 in 10.0 mi WSW 15.0 mph - N/A   Clear
2:35 AM 41.2 °F 31.9 °F 32.0 °F 70% 29.72 in 10.0 mi WSW 20.7 mph 25.3 mph N/A   Clear
2:55 AM 39.7 °F 31.5 °F 30.9 °F 71% 29.72 in 10.0 mi WSW 15.0 mph - N/A   Clear
3:15 AM 38.8 °F 28.8 °F 29.5 °F 69% 29.73 in 10.0 mi WSW 20.7 mph 26.5 mph N/A   Clear
3:35 AM 37.8 °F 27.7 °F 27.9 °F 67% 29.73 in 10.0 mi West 19.6 mph 27.6 mph N/A   Clear
3:55 AM 36.0 °F 25.0 °F 26.6 °F 69% 29.73 in 10.0 mi West 20.7 mph 27.6 mph N/A   Clear
4:15 AM 34.3 °F 21.3 °F 25.7 °F 71% 29.73 in 10.0 mi West 27.6 mph 33.4 mph N/A   Clear
4:35 AM 32.2 °F 19.4 °F 22.8 °F 68% 29.74 in 10.0 mi West 23.0 mph 29.9 mph N/A   Clear
4:55 AM 32.0 °F 21.6 °F 22.8 °F 69% 29.75 in 10.0 mi West 15.0 mph - N/A   Scattered Clouds
5:15 AM 32.4 °F 19.4 °F 22.6 °F 67% 29.76 in 10.0 mi WSW 24.2 mph 34.5 mph N/A   Overcast
5:35 AM 32.4 °F 18.9 °F 22.6 °F 67% 29.76 in 10.0 mi West 26.5 mph 33.4 mph N/A   Overcast
5:55 AM 32.0 °F 19.2 °F 23.7 °F 71% 29.78 in 10.0 mi WSW 23.0 mph 33.4 mph N/A   Overcast
6:15 AM 31.8 °F 18.4 °F 23.2 °F 70% 29.79 in 10.0 mi West 25.3 mph 32.2 mph N/A   Overcast
6:35 AM 31.1 °F 17.7 °F 21.7 °F 68% 29.80 in 10.0 mi West 24.2 mph 32.2 mph N/A   Overcast
6:55 AM 30.4 °F 15.9 °F 20.8 °F 68% 29.81 in 10.0 mi West 27.6 mph 33.4 mph N/A   Overcast
7:15 AM 30.2 °F 15.4 °F 21.2 °F 69% 29.82 in 10.0 mi WSW 28.8 mph 36.8 mph N/A   Overcast
7:35 AM 29.8 °F 14.9 °F 20.3 °F 68% 29.82 in 10.0 mi WSW 28.8 mph 36.8 mph N/A   Overcast
7:55 AM 29.7 °F 15.8 °F 20.3 °F 68% 29.83 in 10.0 mi West 24.2 mph 32.2 mph N/A   Overcast
8:15 AM 29.3 °F 15.3 °F 19.9 °F 68% 29.83 in 10.0 mi West 24.2 mph 34.5 mph N/A   Overcast
8:35 AM 29.5 °F 15.8 °F 20.7 °F 70% 29.84 in 10.0 mi West 23.0 mph 29.9 mph N/A   Overcast
8:55 AM 29.3 °F 14.7 °F 19.6 °F 67% 29.85 in 10.0 mi West 26.5 mph 35.7 mph N/A   Overcast
9:15 AM 29.1 °F 14.8 °F 19.4 °F 67% 29.86 in 10.0 mi West 25.3 mph 35.7 mph N/A   Overcast
9:35 AM 29.3 °F 14.0 °F 19.8 °F 68% 29.86 in 10.0 mi WSW 29.9 mph 33.4 mph N/A   Overcast
9:55 AM 29.7 °F 15.0 °F 19.9 °F 67% 29.87 in 10.0 mi WSW 27.6 mph 34.5 mph N/A   Overcast
10:15 AM 30.2 °F 17.1 °F 20.8 °F 68% 29.88 in 10.0 mi West 21.9 mph 32.2 mph N/A   Overcast
10:35 AM 30.4 °F 15.7 °F 20.5 °F 67% 29.88 in 10.0 mi WSW 28.8 mph 33.4 mph N/A   Overcast
10:55 AM 31.1 °F 16.9 °F 20.8 °F 66% 29.89 in 10.0 mi West 27.6 mph 34.5 mph N/A   Overcast
11:15 AM 31.6 °F 17.6 °F 21.4 °F 66% 29.90 in 10.0 mi WSW 27.6 mph 34.5 mph N/A   Overcast
11:35 AM 32.0 °F 17.9 °F 21.7 °F 66% 29.91 in 10.0 mi West 28.8 mph 34.5 mph N/A   Overcast
11:55 AM 32.7 °F 19.9 °F 22.8 °F 67% 29.92 in 10.0 mi West 24.2 mph 29.9 mph N/A   Overcast
12:15 PM 33.3 °F 19.6 °F 23.0 °F 66% 29.92 in 10.0 mi WSW 28.8 mph 33.4 mph N/A   Mostly Cloudy
12:35 PM 35.1 °F 22.5 °F 23.2 °F 62% 29.93 in 10.0 mi WSW 26.5 mph 38.0 mph N/A   Scattered Clouds
12:55 PM 36.5 °F 24.4 °F 24.1 °F 61% 29.93 in 10.0 mi WSW 26.5 mph 33.4 mph N/A   Clear
1:15 PM 37.4 °F 24.8 °F 25.0 °F 61% 29.94 in 10.0 mi West 31.1 mph 38.0 mph N/A   Clear
1:35 PM 38.3 °F 27.1 °F 24.6 °F 58% 29.95 in 10.0 mi West 25.3 mph 32.2 mph N/A   Clear
1:55 PM 39.6 °F 29.0 °F 25.7 °F 58% 29.95 in 10.0 mi WSW 24.2 mph 29.9 mph N/A   Clear
2:15 PM 41.2 °F 30.3 °F 26.2 °F 55% 29.95 in 10.0 mi West 28.8 mph 33.4 mph N/A   Clear
2:35 PM 42.3 °F 32.8 °F 26.6 °F 54% 29.95 in 10.0 mi West 23.0 mph 34.5 mph N/A   Clear
2:55 PM 43.3 °F 34.5 °F 27.3 °F 53% 29.94 in 10.0 mi West 21.9 mph 29.9 mph N/A   Clear
3:15 PM 44.1 °F 35.2 °F 27.9 °F 53% 29.94 in 10.0 mi West 23.0 mph 29.9 mph N/A   Clear
3:35 PM 45.5 °F 37.6 °F 28.8 °F 52% 29.95 in 10.0 mi West 20.7 mph 26.5 mph N/A   Clear
3:55 PM 46.8 °F - 28.9 °F 50% 29.94 in 10.0 mi West 24.2 mph - N/A   Clear
4:15 PM 47.3 °F - 29.3 °F 50% 29.95 in 10.0 mi West 21.9 mph 25.3 mph N/A   Clear
4:35 PM 47.3 °F - 28.9 °F 49% 29.96 in 10.0 mi West 19.6 mph 26.5 mph N/A   Clear
4:55 PM 47.3 °F - 28.4 °F 48% 29.97 in 10.0 mi West 23.0 mph 27.6 mph N/A   Clear
5:15 PM 46.6 °F - 29.1 °F 51% 29.98 in 10.0 mi West 18.4 mph - N/A   Clear
5:35 PM 46.2 °F 39.5 °F 29.7 °F 53% 29.98 in 10.0 mi West 16.1 mph 20.7 mph N/A   Clear
5:55 PM 45.7 °F 39.5 °F 29.3 °F 53% 29.99 in 10.0 mi West 13.8 mph 21.9 mph N/A   Clear
6:15 PM 45.1 °F 39.1 °F 29.8 °F 55% 29.99 in 10.0 mi West 12.7 mph - N/A   Clear
6:35 PM 44.2 °F 38.0 °F 29.7 °F 57% 30.00 in 10.0 mi West 12.7 mph - N/A   Clear
6:55 PM 43.7 °F 38.1 °F 29.8 °F 58% 30.01 in 10.0 mi West 10.4 mph - N/A   Scattered Clouds
7:15 PM 43.2 °F 37.4 °F 30.2 °F 60% 30.01 in 10.0 mi West 10.4 mph - N/A   Clear
7:35 PM 42.4 °F 35.7 °F 30.2 °F 62% 30.03 in 10.0 mi West 12.7 mph - N/A   Clear
7:55 PM 42.1 °F 36.6 °F 30.9 °F 65% 30.04 in 10.0 mi West 9.2 mph - N/A   Mostly Cloudy
8:15 PM 41.7 °F 36.1 °F 31.1 °F 66% 30.04 in 10.0 mi WNW 9.2 mph - N/A   Overcast
8:35 PM 41.4 °F 35.2 °F 31.1 °F 67% 30.06 in 10.0 mi West 10.4 mph - N/A   Overcast
8:55 PM 40.6 °F 35.4 °F 31.8 °F 71% 30.07 in 10.0 mi SW 8.1 mph - N/A   Overcast
9:15 PM 40.1 °F 36.1 °F 32.0 °F 73% 30.07 in 10.0 mi WSW 5.8 mph - N/A   Overcast
9:35 PM 40.1 °F 35.3 °F 32.0 °F 73% 30.07 in 10.0 mi WSW 6.9 mph - N/A   Overcast
9:55 PM 39.4 °F 33.8 °F 32.0 °F 75% 30.07 in 10.0 mi SW 8.1 mph - N/A   Overcast
10:15 PM 39.2 °F 33.6 °F 32.2 °F 76% 30.07 in 10.0 mi WSW 8.1 mph - N/A   Mostly Cloudy
10:35 PM 38.7 °F 32.9 °F 32.2 °F 78% 30.08 in 10.0 mi WSW 8.1 mph - N/A   Mostly Cloudy
10:55 PM 38.5 °F 32.7 °F 32.4 °F 79% 30.08 in 10.0 mi WSW 8.1 mph - N/A   Overcast
11:15 PM 38.3 °F 32.5 °F 32.4 °F 79% 30.08 in 10.0 mi WSW 8.1 mph - N/A   Overcast
11:35 PM 38.3 °F 33.9 °F 32.2 °F 79% 30.09 in 10.0 mi WSW 5.8 mph - N/A   Mostly Cloudy
11:55 PM 37.8 °F 32.5 °F 32.2 °F 80% 30.09 in 10.0 mi WSW 6.9 mph - N/A   Mostly Cloudy